Regional Weather Roundup
Issued by NWS

Home | Current Version | Previous Version | Graphics & Text | Print | Product List | Glossary On
Versions: 1 2 3 4 5 6 7 8 9 10 11 12 13 14 15 16 17 18 19 20 21 22 23 24 25 26 27 28 29 30 31 32 33 34 35 36 37 38 39 40 41 42 43 44 45 46 47 48 49 50
000
ASUS43 KDMX 042108
RWRIA

WEATHER ROUNDUP FOR IOWA
NATIONAL WEATHER SERVICE DES MOINES IA
400 PM CDT WED MAY 04 2016

NOTE: "FAIR" INDICATES FEW OR NO CLOUDS BELOW 12,000 FEET WITH NO
SIGNIFICANT WEATHER AND/OR OBSTRUCTIONS TO VISIBILITY.

* - THESE STATIONS ARE NOT NWS STATIONS...THUS NOT UNDER NWS
QUALITY CONTROL.  THEY ALSO DO NOT REPORT WEATHER SUCH
AS PRECIPITATION OR FOG.

IAZ001>003-012>014-020>022-031>034-043>046-042200-
   NORTHWEST IOWA

CITY           SKY/WX    TMP DP  RH WIND       PRES   REMARKS
CARROLL *      SUNNY     66  36  32 N22       29.99F
CHEROKEE *     SUNNY     66  37  34 NW17      30.00F
DENISON *      SUNNY     64  36  34 NW16G25   29.99F
LE MARS *      SUNNY     66  37  34 NW14G20   30.03F
ORANGE CITY *  SUNNY     66  36  32 N9G17     30.02F
SHELDON *      SUNNY     68  34  28 N17G28    29.99F
SIOUX CITY     SUNNY     67  43  41 NW15      30.03F
SPENCER        SUNNY     66  34  30 N20G28    30.00F
STORM LAKE *     N/A     66  34  30 N22       30.00F
$$

IAZ055>058-069>071-079>083-090>094-042200-
   SOUTHWEST IOWA

CITY           SKY/WX    TMP DP  RH WIND       PRES   REMARKS
ATLANTIC *     SUNNY     66  37  34 N14G28    30.00S
AUDUBON *      SUNNY     66  34  30 N16G22    30.00F
CLARINDA *       N/A     68  37  32 MISG      30.01S
COUNCIL BLFS * SUNNY     66  37  34 NW16G23   30.02F
CRESTON *      SUNNY     64  36  34 N16G30    29.99F
HARLAN  *      SUNNY     66  34  30 N15G28    30.04F
LAMONI         SUNNY     64  39  39 NW15G28   29.97F
RED OAK *      SUNNY     68  34  28 N20G28    30.00F
SHENANDOAH *   SUNNY     68  34  28 N15G24    30.01S
$$

IAZ047>049-059>061-072>074-084-042200-
   CENTRAL IOWA

CITY           SKY/WX    TMP DP  RH WIND       PRES   REMARKS
AMES           SUNNY     67  32  27 NW22G33   29.94F
ANKENY *       SUNNY     66  34  30 NW13G28   29.94F
BOONE *        SUNNY     64  36  34 NW15G26   29.95F
CHARITON *     SUNNY     64  36  34 N18G24    29.95F
DES MOINES     MOSUNNY   68  31  25 NW13G22   29.95F
GRINNELL*      SUNNY     66  28  24 NW25G31   29.92F
KNOXVILLE *    SUNNY     66  30  26 NW20G25   29.92F
MARSHALLTOWN   SUNNY     65  32  29 NW25G33   29.92F
NEWTON *       SUNNY     66  32  28 N21G29    29.92F
PELLA *        SUNNY    N/A N/A N/A N16G25    29.94F
PERRY *          N/A     66  32  28 N18G28    29.97F
$$

IAZ004>006-015-016-023>025-035-036-042200-
   NORTH CENTRAL IOWA

CITY           SKY/WX    TMP DP  RH WIND       PRES   REMARKS
ALGONA *       SUNNY     66  32  28 N20G29    29.97F
CLARION *      SUNNY     64  32  29 NW16G33   29.95S
ESTHERVILLE    SUNNY     65  36  34 N17       29.98F
FORT DODGE *   SUNNY     64  37  36 N12G18    29.98F
MASON CITY     SUNNY     66  33  29 N24G35    29.94F
FOREST CITY *  SUNNY     63  32  31 NW20G29   29.94F
WEBSTER CITY * SUNNY     66  32  28 NW23G32   29.94F
IOWA FALLS *     N/A     68  32  26 NW20G26   29.94S
$$

IAZ007>011-017>019-026>030-037>042-050>054-066-042200-
   NORTHEAST IOWA

CITY           SKY/WX    TMP DP  RH WIND       PRES   REMARKS
CEDAR RAPIDS   MOSUNNY   65  33  30 N23G38    29.87F
CHARLES CITY * SUNNY     64  28  25 NW23      29.91F
CLINTON *      PTSUNNY   62  38  40 N23       29.85S
DECORAH *      SUNNY     61  32  33 N17G36    29.88S
DUBUQUE        MOSUNNY   61  35  37 N18G29    29.85F
MONTICELLO *   MOSUNNY   63  32  31 NW22      29.86S
OELWEIN *      MOSUNNY   63  32  31 N22G35    29.89S
WATERLOO       SUNNY     65  31  28 N23G32    29.89F
$$

IAZ064-065-067-068-078-042200-
   EAST CENTRAL IOWA

CITY           SKY/WX    TMP DP  RH WIND       PRES   REMARKS
DAVENPORT      MOSUNNY   64  34  32 NW20G32   29.86S
IOWA CITY      MOSUNNY   65  33  30 NW22G28   29.89F
MT. PLEASANT * PTSUNNY   64  37  36 NW17G26   29.89F
MUSCATINE *    MOSUNNY   64  32  29 N23       29.87F
QUAD CITIES    MOSUNNY   63  34  33 NW17G26   29.84S
$$

IAZ062-063-075>077-085>089-095>099-042200-
   SOUTHEAST IOWA

CITY           SKY/WX    TMP DP  RH WIND       PRES   REMARKS
BURLINGTON     MOSUNNY   61  35  37 NW17G26   29.87F
FAIRFIELD *      N/A     64  36  34 N21G30    29.90S
FORT MADISON * MOSUNNY   63  37  39 NW17G26   29.89F
KEOKUK *       MOSUNNY   64  36  34 N14G22    29.89F
OSKALOOSA *      N/A     66  30  26 N20G31    29.92S
OTTUMWA        MOSUNNY   64  34  32 N20G31    29.92F
WASHINGTON *   PTSUNNY   64  34  32 NW20G33   29.90F
$$

ABBREVIATIONS USED IN REMARKS
   TC - TEMPERATURES IN CELSIUS
  WCI - WIND CHILL INDEX
   HX - HEAT INDEX
  VSB - VISIBILITY
$$





USA.gov is the U.S. government's official web portal to all federal, state and local government web resources and services.